Regional Weather Roundup
Issued by NWS Albany, NY

Home | Current Version | Previous Version | Text Only | Print | Product List | Glossary On
Versions: 1 2 3 4 5 6 7 8 9 10 11 12 13 14 15 16 17 18 19 20 21 22 23 24 25 26 27 28 29 30 31 32 33 34 35 36 37 38 39 40 41 42 43 44 45 46 47 48 49 50
000
ASUS41 KALY 260010
RWRALY

NEW YORK STATE HOURLY WEATHER ROUNDUP
NATIONAL WEATHER SERVICE ALBANY NY
800 PM EDT TUE APR 25 2017

NOTE: "FAIR" INDICATES FEW OR NO CLOUDS BELOW 12,000 FEET WITH NO
SIGNIFICANT WEATHER AND/OR NO OBSTRUCTIONS TO VISIBILITY.

NYZ032-033-038>043-046>054-057>066-NYZ062>081-082-084-260100-
EAST


CITY           SKY/WX    TMP DP  RH WIND       PRES   REMARKS
ALBANY         LGT RAIN  53  47  79 NE6       30.05F
GLENS FALLS    LGT RAIN  51  47  86 NE8       30.08F
POUGHKEEPSIE   LGT RAIN  52  49  89 NE7       29.98F FOG
NEWBURGH       DRIZZLE   52  52 100 E13G20    29.98F FOG
MONTGOMERY     LGT RAIN  52  50  93 NE13      29.96R
WHITE PLAINS   LGT RAIN  53  50  89 NE18G25   29.92F FOG
ISLIP          LGT RAIN  54  54 100 NE13      29.92F VSB 1
NEW YORK CITY  LGT RAIN  53  50  89 NE28G35   29.89F FOG
CENTRAL PARK   LGT RAIN  52  51  97 E12G31    29.92F FOG
$$

NYZ005>009-017-018-044>046-055-056-260100-
CENTRAL


CITY           SKY/WX    TMP DP  RH WIND       PRES   REMARKS
FULTON         CLOUDY    55  47  74 SE9G18    29.95S
SYRACUSE       MOCLDY    54  47  77 E18G24    29.95S
ROME           CLOUDY    54  47  77 E13G23    30.01F
ELMIRA         LGT RAIN  58  52  80 E7        29.89F
BINGHAMTON     LGT RAIN  54  50  86 E7        29.92S
MONTICELLO     CLOUDY    48  48 100 E16       29.95F
$$

NYZ026>034-041>043-087-260100-
NORTH


CITY           SKY/WX    TMP DP  RH WIND       PRES   REMARKS
WATERTOWN      CLOUDY    54  52  93 E5        29.96F
FORT DRUM      NOT AVBL
OGDENSBURG     LGT RAIN  51  49  94 E6        30.01S
MASSENA        LGT RAIN  51  50  96 NE9       30.04F
SARANAC LAKE   LGT RAIN  51  48  89 SE5       30.03F
PLATTSBURGH    LGT RAIN  48  46  93 S5        30.10F
$$

NYZ001>004-010>016-019>021-085-260100-
WEST


CITY           SKY/WX    TMP DP  RH WIND       PRES   REMARKS
NIAGARA FALLS  CLOUDY    64  52  64 E14       29.83F
BUFFALO        CLOUDY    62  52  69 E8        29.84F
DUNKIRK        MOCLDY    63  56  78 E5        29.81F
JAMESTOWN      CLOUDY    61  48  63 SE6       29.84S
WELLSVILLE     CLOUDY    55  49  80 E13G24    29.90F
ROCHESTER      CLOUDY    63  52  67 SE8       29.90R
PENN YAN       CLOUDY    60  49  66 E5        29.91F
$$

             KEY
       WCI = WIND CHILL INDEX
       VSB = VISIBILITY
       HX  = HEAT INDEX
$$



USA.gov is the U.S. government's official web portal to all federal, state and local government web resources and services.